Погода в Малом Карлино

Россия / Санкт-Петербург и Ленинградская область     59°43′26″N   30°16′00″E
темп.,
°C
ветер,
м/с
пор.,
м/с
влажн.,
%
обл.,
%
осадки,
мм/ч
давл.,
гПа
погр.,
м
3 марта, ср
ср300:00−1зсз612870 0.0 1018379
03:00−1зсз613890 0.0 1018417
06:00−2з5119425 0.0 1016357
09:00−2з6129241 0.0 1015463
12:00+1з6128447 0.0 1013680
15:00+2з6137574 0.0 1010948
18:00+1з7149798 0.6 1006740
21:00+1зсз7149799 1.8 1004699
4 марта, чт
чт400:000сз61189100 1.3 1002892
03:00−3зсз5128063 1.3 1004492
06:00−4зсз510860 0.0 1003388
09:00−4зсз48890 0.0 1003312
12:00−3сз458424 0.0 1003448
15:00−3сз578955 0.1 1004645
18:00−4сз6981100 0.2 1004809
21:00−5сз4108398 0.3 1005695
5 марта, пт
пт500:00−6сз488750 0.0 1006518
03:00−7сз488867 0.1 1007584
06:00−8сз5887100 0.1 1008522
09:00−9сз488795 0.1 1009476
12:00−7сз468396 0.1 1011563
15:00−7ссз458098 0.1 1013699
18:00−7ссз3578100 0.1 1014383
21:00−8зсз358566 0.1 1016129
6 марта, сб
сб600:00−8зсз368771 0.0 1017192
03:00−9зсз369354 0.0 1017208
06:00−9зсз369422 0.0 1016180
09:00−9з389111 0.0 1016276
12:00−4зюз587312 0.0 1014870
15:00−3юз7117255 0.0 1010924
18:00−4юз91691100 0.5 10031138
21:00−2зюз91694100 1.9 9961036
7 марта, вс
вс700:00−1з101794100 2.5 9911056
03:00−4зсз10157996 3.3 9901034
06:00−10з5156853 0.0 9911280
09:00−9з5147539 0.0 9901703
12:00−9зсз8138899 0.3 9891164
15:00−5сз71188100 1.4 9911126
18:00−7ссз5985100 0.3 996645
21:00−8ссз71290100 0.6 1000598